TimeEDT,TemperatureF,Dew PointF,Humidity,Sea Level PressureIn,VisibilityMPH,Wind Direction,Wind SpeedMPH,Gust SpeedMPH,PrecipitationIn,Events,Conditions,WindDirDegrees,DateUTC
12:53 AM,57.9,52.0,81,30.16,10.0,NNW,10.4,-,N/A,,Mostly Cloudy,340,2011-10-04 04:53:00
1:53 AM,57.9,52.0,81,30.17,10.0,NNW,11.5,-,N/A,,Overcast,340,2011-10-04 05:53:00
2:39 AM,57.2,51.8,82,30.17,10.0,NNW,11.5,-,N/A,,Overcast,330,2011-10-04 06:39:00
2:53 AM,57.9,52.0,81,30.17,10.0,NNW,9.2,-,N/A,,Overcast,330,2011-10-04 06:53:00
3:09 AM,57.2,51.8,82,30.17,10.0,NNW,9.2,-,N/A,,Overcast,330,2011-10-04 07:09:00
3:32 AM,57.2,51.8,82,30.17,10.0,NNW,8.1,-,N/A,,Overcast,340,2011-10-04 07:32:00
3:53 AM,57.9,51.1,78,30.17,10.0,NW,8.1,-,N/A,,Mostly Cloudy,320,2011-10-04 07:53:00
4:11 AM,57.2,51.8,82,30.16,10.0,WNW,9.2,-,N/A,,Scattered Clouds,300,2011-10-04 08:11:00
4:53 AM,57.9,51.1,78,30.17,10.0,WNW,11.5,-,N/A,,Overcast,300,2011-10-04 08:53:00
5:53 AM,57.9,53.1,84,30.18,10.0,NW,11.5,-,N/A,,Overcast,320,2011-10-04 09:53:00
6:53 AM,59.0,53.6,82,30.19,10.0,NNW,12.7,-,N/A,,Overcast,330,2011-10-04 10:53:00
7:53 AM,59.0,53.1,81,30.21,10.0,NNW,8.1,-,N/A,,Overcast,340,2011-10-04 11:53:00
8:53 AM,60.1,54.0,80,30.23,10.0,NW,11.5,-,N/A,,Mostly Cloudy,320,2011-10-04 12:53:00
9:51 AM,60.8,53.6,77,30.25,10.0,WNW,9.2,-,N/A,,Partly Cloudy,300,2011-10-04 13:51:00
9:53 AM,61.0,54.0,78,30.25,10.0,NW,10.4,-,N/A,,Scattered Clouds,310,2011-10-04 13:53:00
10:53 AM,62.1,53.1,72,30.26,10.0,WNW,10.4,-,N/A,,Scattered Clouds,290,2011-10-04 14:53:00
11:53 AM,62.1,53.1,72,30.26,10.0,WNW,10.4,-,N/A,,Clear,290,2011-10-04 15:53:00
12:53 PM,63.0,54.0,72,30.26,10.0,WNW,11.5,-,N/A,,Clear,290,2011-10-04 16:53:00
1:53 PM,63.0,54.0,72,30.25,10.0,West,13.8,-,N/A,,Clear,280,2011-10-04 17:53:00
2:53 PM,64.4,53.6,68,30.24,10.0,West,9.2,-,N/A,,Clear,280,2011-10-04 18:53:00
3:53 PM,64.0,54.0,70,30.24,10.0,West,9.2,-,N/A,,Clear,270,2011-10-04 19:53:00
4:53 PM,63.0,55.0,75,30.23,10.0,West,8.1,-,N/A,,Clear,260,2011-10-04 20:53:00
5:53 PM,62.6,53.6,72,30.22,10.0,West,9.2,-,N/A,,Clear,270,2011-10-04 21:53:00
6:53 PM,61.0,51.1,70,30.23,10.0,West,8.1,-,N/A,,Clear,260,2011-10-04 22:53:00
7:53 PM,57.0,50.0,77,30.23,10.0,SW,5.8,-,N/A,,Clear,230,2011-10-04 23:53:00
8:53 PM,55.9,44.1,64,30.23,10.0,SW,6.9,-,N/A,,Clear,230,2011-10-05 00:53:00
9:53 PM,55.9,42.1,60,30.24,10.0,SSW,3.5,-,N/A,,Clear,210,2011-10-05 01:53:00
10:53 PM,59.0,44.1,58,30.23,10.0,South,3.5,-,N/A,,Clear,180,2011-10-05 02:53:00
11:53 PM,57.0,44.1,62,30.23,10.0,South,4.6,-,N/A,,Clear,170,2011-10-05 03:53:00